sat.trackr.live / text

‹ back to catalog

STARLINK-5233

NORAD 54160 · 2022-141D

PAYLOAD ACTIVE UNKNOWN

§ Identity

Operator
Country
US
Launch date
2022-10-28
Launch site
AFWTR
Launch vehicle
Mass (kg)
RCS (m²)

Purposes: comms

External: N2YO · Heavens-Above · Gunter

§ Orbital elements

Epoch: 2026-05-24T23:07:21.321408Z

Period
95.44 min
Inclination
53.2140°
Eccentricity
0.0001236
Mean motion
15.08840323 rev/d
Perigee alt
538.9 km
Apogee alt
540.6 km
Semi-major
6,917.9 km
B*
2.1793e-5
RAAN
346.6819°
Arg perigee
76.6213°
Mean anomaly
283.4917°
Rev number
19,786

§ Raw data

STARLINK-52331 54160U 22141D   26144.96344122  .00000059  00000+0  21793-4 0  99932 54160  53.2140 346.6819 0001236  76.6213 283.4917 15.08840323197866

JSON: /api/v1/satellites/54160 · /tle

For live sub-satellite position, see the globe view (requires WebGL).

§ Visibility from observer

Set your observer location to see the next 7 days of passes ≥ 10°. The values pass through the URL so the page stays shareable.

No JS? Fill the form by hand. The geolocation button needs JavaScript.